This is the latest recevied weather packets stored in our database for station/object K1AWR. If no packets are shown the sender has not sent any weather packets the latest 10 day(s).
| Time | Temp. | Humidity | Pressure | Rain* | Wind** | Luminosity | Snow |
|---|---|---|---|---|---|---|---|
| 1777575266 | 12.78° C | 82% | 1006.6 hPa | 0 mm | - | 62 W/m² | - |
| 1777574962 | 13.33° C | 80% | 1006.6 hPa | 0 mm | - | 60 W/m² | - |
| 1777574658 | 13.33° C | 80% | 1006.7 hPa | 0 mm | - | 97 W/m² | - |
| 1777574356 | 13.89° C | 79% | 1006.6 hPa | 0 mm | - | 163 W/m² | - |
| 1777574056 | 13.33° C | 81% | 1006.5 hPa | 0 mm | - | 184 W/m² | - |
| 1777573751 | 13.33° C | 80% | 1006.4 hPa | 0 mm | - | 222 W/m² | - |
| 1777573448 | 12.78° C | 80% | 1006.5 hPa | 0 mm | - | 216 W/m² | - |
| 1777573143 | 12.78° C | 82% | 1006.6 hPa | 0 mm | - | 126 W/m² | - |
| 1777572840 | 12.78° C | 81% | 1006.6 hPa | 0 mm | - | 105 W/m² | - |
| 1777572536 | 12.78° C | 83% | 1006.5 hPa | 0 mm | - | 104 W/m² | - |
| 1777572231 | 12.78° C | 82% | 1006.5 hPa | 0 mm | - | 146 W/m² | - |
| 1777571927 | 12.78° C | 82% | 1006.8 hPa | 0 mm | - | 291 W/m² | - |
| 1777571622 | 12.78° C | 85% | 1006.8 hPa | 0 mm | - | 234 W/m² | - |
| 1777571319 | 12.22° C | 84% | 1006.9 hPa | 0 mm | - | 161 W/m² | - |
| 1777571015 | 12.78° C | 86% | 1006.7 hPa | 0 mm | - | 243 W/m² | - |
| 1777570712 | 12.22° C | 85% | 1006.5 hPa | 0 mm | - | 185 W/m² | - |
| 1777570408 | 12.22° C | 87% | 1006.5 hPa | 0 mm | - | 196 W/m² | - |
| 1777570104 | 12.22° C | 87% | 1006.7 hPa | 0 mm | - | 321 W/m² | - |
| 1777569800 | 12.22° C | 87% | 1006.8 hPa | 0 mm | - | 211 W/m² | - |
| 1777569496 | 11.67° C | 88% | 1006.6 hPa | 0 mm | - | 168 W/m² | - |
| 1777569193 | 11.67° C | 88% | 1006.8 hPa | 0 mm | - | 234 W/m² | - |
| 1777568889 | 11.67° C | 89% | 1006.8 hPa | 0 mm | - | 265 W/m² | - |
| 1777568586 | 11.67° C | 90% | 1006.8 hPa | 0 mm | - | 247 W/m² | - |
| 1777568283 | 11.67° C | 89% | 1007.3 hPa | 0 mm | - | 121 W/m² | - |
| 1777567979 | 11.11° C | 89% | 1007.3 hPa | 0 mm | - | 179 W/m² | - |
* Rain latest hour (hover to see other rain measurements)
** Current wind speed in m/s (hover to see current wind gust speed)